SL-3 R/B, 877

Orbit data source: Space-Track

SL-3 R/B, 877 is space debris in LEO originally from a launch on Fri, 28 Aug 1964 UTC launched from the Tyuratam Missile And Space Complex (TTMTR). Debris objects in space refer to the collection of defunct objects orbiting the Earth. Examples of debris include non-operational satellites, rocket bodies, and fragments generated from explosions, collisions, or faulty payload assembly.

Loading next visibility...
Identifier
877, 1964-053B
Orbit
LEO
Last TLE update
21 hours ago
Origin
Manufacturer
Progress
Mission
Spacecraft
Bus & Motor
BLOK-E, Unknown motor
Mass
1,440 kg wet, 1,440 kg dry
Launch date (UTC)
1964-08-28 (61 years ago)
Launch vehicle
Unknown
Launch site
Tyuratam Missile And Space Complex (TTMTR)
Object type
Payload
Rocket body
Debris
Shape & HBR
Cyl, 3.8 m
Radar Cross Section
10.414 m², Large (>1 m²)

Expand to show TLE details & history

TLE from 21 hours ago
0 SL-3 R/B
1 00877U 64053B   25185.79895080  .00000108  00000-0  45768-4 0  9990
2 00877  65.0785 337.8015 0056333  21.1012 339.2393 14.61098769230579
Epoch: 2025-07-04T19:10Z
TLE epoch observation values (Epoch: 2025-07-04T19:10:29.349Z)
Latitude
-0.00003°
Longitude
127.13303°
Altitude
654.429 km
Speed
7.551 km/s
True Right ascension
22h 31m 12s
True Declination
0° 00' 00"
Sunlit
Object was in full shadow at epoch
Visualization orbit readout
Latitude
20.85701°
Longitude
134.65508°
Altitude
651.5 km
Speed
7.555 km/s
Apparent Right ascension
20h 24m 43s
Apparent Declination
-11° 36' 30"
Sunlit
Object is in daylight
Visualization observer readout
Local Sidereal Time
04:33:16
Azimuth
282.244° WNW
Elevation
-31.921°
Doppler factor
1
Orbital elements
Apogee altitude
727.984 km
Perigee altitude
648.37 km
Semi-major axis
7,066.314 km
Eccentricity
0.00563
Inclination
65.0785°
RAAN
337.8015°
Arg. of periapsis
21.1012°
True anomaly
Unknown
Mean anomaly
339.2393°
Eccentric anomaly
Unknown
Mean motion
3.65388 °/min
Orbital period
98.53 mins
BSTAR
0.000045768
Loading maneuver chart data...
Loading SW <> Apogee altitude chart data...
Loading historical data...
Loading historical data...
Loading historical data...
Loading historical data...
Loading historical data...
Loading historical data...
Loading historical data...
Other satellites on launch #53 in the year 1964 (1964-08-28 UTC)

SL-3 R/B Visibility forecast

Observer location: undefined°, undefined°

Span
Click to sort rows by Start time (UTC) header in descending order
Start Az.
Max El. time (UTC)
Max El. Az.
Max El.
End time (UTC)
End Az.
8 mins2025-07-05 20:21:02.006Z341.006° N2025-07-05 20:25:02.006Z62.631° ENE38.466°2025-07-05 20:29:02.006Z129.792° SE
5 mins2025-07-05 22:04:02.006Z278.166° WNW2025-07-05 22:06:02.006Z248.424° W17.832°2025-07-05 22:09:02.006Z209.504° SW
5 mins2025-07-06 10:45:02.006Z145.337° SSE2025-07-06 10:47:02.006Z107.476° ESE22.68°2025-07-06 10:50:02.006Z61.788° ENE
7 mins2025-07-06 12:25:02.006Z249.754° W2025-07-06 12:28:02.006Z308.186° NW30.521°2025-07-06 12:32:02.006Z14.115° NNE
|